{"data":{"norad_id":59767,"epoch":"2026-09-21T07:02:01.597056Z","epoch_age_seconds":102748,"freshness":"FRESH","line1":"1 59767U 24091Q   26264.29307404  .00000620  00000+0  31732-4 0  9996","line2":"2 59767  53.1602 196.8041 0001294  81.9968 278.1180 15.31705664132976","mean_motion":15.31705664,"eccentricity":0.0001294,"inclination_deg":53.1602,"raan_deg":196.8041,"arg_perigee_deg":81.9968,"mean_anomaly_deg":278.118,"bstar":3.1732e-5,"rev_number":13297,"period_min":94.012840315514,"perigee_km":469.83686869002,"apogee_km":471.60935368679,"semimajor_km":6848.8601111884,"source":"CELESTRAK","updated_at":"2026-09-22T09:00:49.069754Z"}}